sat.trackr.live / text

‹ back to catalog

STARLINK-37149

NORAD 68309 · 2026-057R

PAYLOAD ACTIVE UNKNOWN

§ Identity

Operator
Country
US
Launch date
2026-03-20
Launch site
AFWTR
Launch vehicle
Mass (kg)
RCS (m²)

Purposes: comms

External: N2YO · Heavens-Above · Gunter

§ Orbital elements

Epoch: 2026-09-19T07:30:11.049696Z

Period
93.91 min
Inclination
97.2880°
Eccentricity
0.0000228
Mean motion
15.33449818 rev/d
Perigee alt
465.4 km
Apogee alt
465.7 km
Semi-major
6,843.7 km
B*
6.8020e-4
RAAN
27.7619°
Arg perigee
328.9827°
Mean anomaly
31.1402°
Rev number
2,833

§ Raw data

STARLINK-371491 68309U 26057R   26262.31262789  .00021951  00000+0  68020-3 0  99982 68309  97.2880  27.7619 0000228 328.9827  31.1402 15.33449818 28338

JSON: /api/v1/satellites/68309 · /tle

For live sub-satellite position, see the globe view (requires WebGL).

§ Visibility from observer

Set your observer location to see the next 7 days of passes ≥ 10°. The values pass through the URL so the page stays shareable.

No JS? Fill the form by hand. The geolocation button needs JavaScript.